Location: ????????
(60.4333°N, 46.4710°E)
Time: 04:26:06
(UTC+00:00)

Cosmos 2221 - Pass Details

Date: 25 November 2020
Orbit: 593 x 615 km, 82.5° (Epoch: 19 January)

Event Time Altitude Azimuth Distance (km) Brightness Sun altitude
Rises 15:01:49 0° 219° (SW) 2,866 6.7 -20.6°
Reaches altitude 10° 15:04:11 10° 228° (SW) 1,962 5.9 -20.9°
Maximum altitude 15:08:12 36° 296° (WNW) 964 4.0 -21.4°
Drops below altitude 10° 15:12:14 10° 4° (N) 1,961 5.0 -21.9°
Enters shadow 15:12:37 - 6° (N) 2,104 5.2 -21.9°
